﻿測定場所 (Monitoring sites),日付 (Measurement date),時間 (Measurement time),線量率 最大値 (max) μGy/h,線量率 最小値 (min) μGy/h,線量率 平均値 (average) μGy/h,
江東 (Koto),2012-06-24,23:01～24:00,0.0466,0.0407,0.0438,
江東 (Koto),2012-06-24,22:01～23:00,0.0461,0.0407,0.0436,
江東 (Koto),2012-06-24,21:01～22:00,0.0473,0.0414,0.0437,
江東 (Koto),2012-06-24,20:01～21:00,0.0467,0.0412,0.0438,
江東 (Koto),2012-06-24,19:01～20:00,0.0464,0.0415,0.0436,
江東 (Koto),2012-06-24,18:01～19:00,0.0470,0.0403,0.0436,
江東 (Koto),2012-06-24,17:01～18:00,0.0476,0.0405,0.0438,
江東 (Koto),2012-06-24,16:01～17:00,0.0466,0.0418,0.0440,
江東 (Koto),2012-06-24,15:01～16:00,0.0470,0.0417,0.0439,
江東 (Koto),2012-06-24,14:01～15:00,0.0466,0.0420,0.0441,
江東 (Koto),2012-06-24,13:01～14:00,0.0466,0.0416,0.0440,
江東 (Koto),2012-06-24,12:01～13:00,0.0462,0.0407,0.0439,
江東 (Koto),2012-06-24,11:01～12:00,0.0461,0.0410,0.0438,
江東 (Koto),2012-06-24,10:01～11:00,0.0465,0.0414,0.0439,
江東 (Koto),2012-06-24,09:01～10:00,0.0459,0.0412,0.0437,
江東 (Koto),2012-06-24,08:01～09:00,0.0470,0.0406,0.0438,
江東 (Koto),2012-06-24,07:01～08:00,0.0479,0.0415,0.0437,
江東 (Koto),2012-06-24,06:01～07:00,0.0465,0.0409,0.0439,
江東 (Koto),2012-06-24,05:01～06:00,0.0462,0.0410,0.0438,
江東 (Koto),2012-06-24,04:01～05:00,0.0466,0.0410,0.0440,
江東 (Koto),2012-06-24,03:01～04:00,0.0473,0.0421,0.0442,
江東 (Koto),2012-06-24,02:01～03:00,0.0463,0.0398,0.0438,
江東 (Koto),2012-06-24,01:01～02:00,0.0463,0.0419,0.0437,
江東 (Koto),2012-06-24,00:01～01:00,0.0469,0.0412,0.0438,
江東 (Koto),2012-06-23,23:01～24:00,0.0461,0.0417,0.0438,
江東 (Koto),2012-06-23,22:01～23:00,0.0469,0.0411,0.0438,
江東 (Koto),2012-06-23,21:01～22:00,0.0461,0.0401,0.0437,
江東 (Koto),2012-06-23,20:01～21:00,0.0486,0.0405,0.0441,
江東 (Koto),2012-06-23,19:01～20:00,0.0472,0.0408,0.0438,
江東 (Koto),2012-06-23,18:01～19:00,0.0459,0.0412,0.0437,
江東 (Koto),2012-06-23,17:01～18:00,0.0463,0.0411,0.0438,
江東 (Koto),2012-06-23,16:01～17:00,0.0463,0.0417,0.0439,
江東 (Koto),2012-06-23,15:01～16:00,0.0465,0.0411,0.0439,
江東 (Koto),2012-06-23,14:01～15:00,0.0475,0.0408,0.0441,
江東 (Koto),2012-06-23,13:01～14:00,0.0462,0.0409,0.0437,
江東 (Koto),2012-06-23,12:01～13:00,0.0465,0.0416,0.0436,
江東 (Koto),2012-06-23,11:01～12:00,0.0464,0.0414,0.0438,
江東 (Koto),2012-06-23,10:01～11:00,0.0467,0.0415,0.0439,
江東 (Koto),2012-06-23,09:01～10:00,0.0460,0.0408,0.0438,
江東 (Koto),2012-06-23,08:01～09:00,0.0463,0.0407,0.0436,
江東 (Koto),2012-06-23,07:01～08:00,0.0463,0.0390,0.0437,
江東 (Koto),2012-06-23,06:01～07:00,0.0454,0.0413,0.0438,
江東 (Koto),2012-06-23,05:01～06:00,0.0463,0.0414,0.0437,
江東 (Koto),2012-06-23,04:01～05:00,0.0463,0.0410,0.0434,
江東 (Koto),2012-06-23,03:01～04:00,0.0479,0.0410,0.0436,
江東 (Koto),2012-06-23,02:01～03:00,0.0480,0.0409,0.0436,
江東 (Koto),2012-06-23,01:01～02:00,0.0459,0.0404,0.0437,
江東 (Koto),2012-06-23,00:01～01:00,0.0470,0.0402,0.0438,
江東 (Koto),2012-06-22,23:01～24:00,0.0463,0.0406,0.0434,
江東 (Koto),2012-06-22,22:01～23:00,0.0466,0.0414,0.0438,
江東 (Koto),2012-06-22,21:01～22:00,0.0464,0.0411,0.0439,
江東 (Koto),2012-06-22,20:01～21:00,0.0463,0.0407,0.0436,
江東 (Koto),2012-06-22,19:01～20:00,0.0463,0.0413,0.0436,
江東 (Koto),2012-06-22,18:01～19:00,0.0474,0.0415,0.0437,
江東 (Koto),2012-06-22,17:01～18:00,0.0476,0.0408,0.0437,
江東 (Koto),2012-06-22,16:01～17:00,0.0456,0.0417,0.0435,
江東 (Koto),2012-06-22,15:01～16:00,0.0470,0.0407,0.0438,
江東 (Koto),2012-06-22,14:01～15:00,0.0462,0.0410,0.0439,
江東 (Koto),2012-06-22,13:01～14:00,0.0478,0.0418,0.0443,
江東 (Koto),2012-06-22,12:01～13:00,0.0476,0.0418,0.0453,
江東 (Koto),2012-06-22,11:01～12:00,0.0515,0.0436,0.0469,
江東 (Koto),2012-06-22,10:01～11:00,0.0503,0.0439,0.0470,
江東 (Koto),2012-06-22,09:01～10:00,0.0484,0.0428,0.0457,
江東 (Koto),2012-06-22,08:01～09:00,0.0482,0.0416,0.0457,
江東 (Koto),2012-06-22,07:01～08:00,0.0514,0.0449,0.0482,
江東 (Koto),2012-06-22,06:01～07:00,0.0524,0.0453,0.0483,
江東 (Koto),2012-06-22,05:01～06:00,0.0490,0.0434,0.0462,
江東 (Koto),2012-06-22,04:01～05:00,0.0473,0.0418,0.0444,
江東 (Koto),2012-06-22,03:01～04:00,0.0465,0.0421,0.0441,
江東 (Koto),2012-06-22,02:01～03:00,0.0468,0.0410,0.0438,
江東 (Koto),2012-06-22,01:01～02:00,0.0469,0.0405,0.0442,
江東 (Koto),2012-06-22,00:01～01:00,0.0463,0.0404,0.0438,
江東 (Koto),2012-06-21,23:01～24:00,0.0472,0.0408,0.0442,
江東 (Koto),2012-06-21,22:01～23:00,0.0488,0.0410,0.0440,
江東 (Koto),2012-06-21,21:01～22:00,0.0469,0.0413,0.0442,
江東 (Koto),2012-06-21,20:01～21:00,0.0474,0.0406,0.0437,
江東 (Koto),2012-06-21,19:01～20:00,0.0469,0.0417,0.0438,
江東 (Koto),2012-06-21,18:01～19:00,0.0464,0.0415,0.0439,
江東 (Koto),2012-06-21,17:01～18:00,0.0469,0.0417,0.0444,
江東 (Koto),2012-06-21,16:01～17:00,0.0474,0.0419,0.0441,
江東 (Koto),2012-06-21,15:01～16:00,0.0471,0.0410,0.0442,
江東 (Koto),2012-06-21,14:01～15:00,0.0472,0.0422,0.0446,
江東 (Koto),2012-06-21,13:01～14:00,0.0470,0.0420,0.0445,
江東 (Koto),2012-06-21,12:01～13:00,0.0477,0.0418,0.0446,
江東 (Koto),2012-06-21,11:01～12:00,0.0472,0.0420,0.0443,
江東 (Koto),2012-06-21,10:01～11:00,0.0463,0.0407,0.0439,
江東 (Koto),2012-06-21,09:01～10:00,0.0471,0.0406,0.0442,
江東 (Koto),2012-06-21,08:01～09:00,0.0464,0.0410,0.0437,
江東 (Koto),2012-06-21,07:01～08:00,0.0476,0.0410,0.0439,
江東 (Koto),2012-06-21,06:01～07:00,0.0463,0.0415,0.0439,
江東 (Koto),2012-06-21,05:01～06:00,0.0461,0.0414,0.0440,
江東 (Koto),2012-06-21,04:01～05:00,0.0465,0.0412,0.0438,
江東 (Koto),2012-06-21,03:01～04:00,0.0458,0.0413,0.0440,
江東 (Koto),2012-06-21,02:01～03:00,0.0462,0.0414,0.0437,
江東 (Koto),2012-06-21,01:01～02:00,0.0465,0.0408,0.0437,
江東 (Koto),2012-06-21,00:01～01:00,0.0476,0.0410,0.0436,
江東 (Koto),2012-06-20,17:01～18:00,0.0467,0.0412,0.0441,
江東 (Koto),2012-06-20,16:01～17:00,0.0461,0.0416,0.0439,
江東 (Koto),2012-06-20,15:01～16:00,0.0463,0.0407,0.0437,
江東 (Koto),2012-06-20,14:01～15:00,0.0467,0.0408,0.0439,
江東 (Koto),2012-06-20,13:01～14:00,0.0470,0.0422,0.0443,
江東 (Koto),2012-06-20,12:01～13:00,0.0463,0.0418,0.0439,
江東 (Koto),2012-06-20,11:01～12:00,0.0467,0.0410,0.0440,
江東 (Koto),2012-06-20,10:01～11:00,0.0469,0.0418,0.0439,
江東 (Koto),2012-06-20,09:01～10:00,0.0482,0.0405,0.0440,
江東 (Koto),2012-06-20,08:01～09:00,0.0477,0.0413,0.0441,
江東 (Koto),2012-06-20,07:01～08:00,0.0463,0.0421,0.0443,
江東 (Koto),2012-06-20,06:01～07:00,0.0467,0.0417,0.0442,
江東 (Koto),2012-06-20,05:01～06:00,0.0470,0.0424,0.0446,
江東 (Koto),2012-06-20,04:01～05:00,0.0469,0.0423,0.0445,
江東 (Koto),2012-06-20,03:01～04:00,0.0473,0.0422,0.0444,
江東 (Koto),2012-06-20,02:01～03:00,0.0483,0.0424,0.0448,
江東 (Koto),2012-06-20,01:01～02:00,0.0492,0.0426,0.0460,
江東 (Koto),2012-06-20,00:01～01:00,0.0520,0.0460,0.0494,
江東 (Koto),2012-06-19,23:01～24:00,0.0531,0.0440,0.0487,
江東 (Koto),2012-06-19,22:01～23:00,0.0484,0.0419,0.0451,
江東 (Koto),2012-06-19,21:01～22:00,0.0477,0.0425,0.0448,
江東 (Koto),2012-06-19,20:01～21:00,0.0470,0.0425,0.0445,
江東 (Koto),2012-06-19,19:01～20:00,0.0474,0.0409,0.0440,
江東 (Koto),2012-06-19,18:01～19:00,0.0467,0.0403,0.0441,
江東 (Koto),2012-06-19,17:01～18:00,0.0457,0.0417,0.0435,
江東 (Koto),2012-06-19,16:01～17:00,0.0465,0.0421,0.0441,
江東 (Koto),2012-06-19,15:01～16:00,0.0460,0.0414,0.0436,
江東 (Koto),2012-06-19,14:01～15:00,0.0481,0.0423,0.0440,
江東 (Koto),2012-06-19,13:01～14:00,0.0477,0.0422,0.0442,
江東 (Koto),2012-06-19,12:01～13:00,0.0465,0.0411,0.0439,
江東 (Koto),2012-06-19,11:01～12:00,0.0458,0.0415,0.0436,
江東 (Koto),2012-06-19,10:01～11:00,0.0464,0.0410,0.0439,
江東 (Koto),2012-06-19,09:01～10:00,0.0468,0.0417,0.0438,
江東 (Koto),2012-06-19,08:01～09:00,0.0469,0.0414,0.0439,
江東 (Koto),2012-06-19,07:01～08:00,0.0473,0.0417,0.0440,
江東 (Koto),2012-06-19,06:01～07:00,0.0465,0.0416,0.0441,
江東 (Koto),2012-06-19,05:01～06:00,0.0466,0.0415,0.0439,
江東 (Koto),2012-06-19,04:01～05:00,0.0471,0.0411,0.0439,
江東 (Koto),2012-06-19,03:01～04:00,0.0468,0.0411,0.0440,
江東 (Koto),2012-06-19,02:01～03:00,0.0460,0.0410,0.0438,
江東 (Koto),2012-06-19,01:01～02:00,0.0463,0.0410,0.0439,
江東 (Koto),2012-06-19,00:01～01:00,0.0465,0.0412,0.0438,
江東 (Koto),2012-06-18,23:01～24:00,0.0466,0.0412,0.0437,
江東 (Koto),2012-06-18,22:01～23:00,0.0471,0.0418,0.0442,
江東 (Koto),2012-06-18,21:01～22:00,0.0469,0.0404,0.0435,
江東 (Koto),2012-06-18,20:01～21:00,0.0461,0.0408,0.0436,
江東 (Koto),2012-06-18,19:01～20:00,0.0458,0.0409,0.0437,
江東 (Koto),2012-06-18,18:01～19:00,0.0473,0.0411,0.0441,
江東 (Koto),2012-06-18,17:01～18:00,0.0465,0.0416,0.0443,
江東 (Koto),2012-06-18,16:01～17:00,0.0466,0.0410,0.0439,
江東 (Koto),2012-06-18,15:01～16:00,0.0467,0.0410,0.0438,
江東 (Koto),2012-06-18,14:01～15:00,0.0465,0.0404,0.0437,
江東 (Koto),2012-06-18,13:01～14:00,0.0464,0.0403,0.0438,
江東 (Koto),2012-06-18,12:01～13:00,0.0462,0.0407,0.0436,
江東 (Koto),2012-06-18,11:01～12:00,0.0465,0.0404,0.0439,
江東 (Koto),2012-06-18,10:01～11:00,0.0483,0.0416,0.0439,
江東 (Koto),2012-06-18,09:01～10:00,0.0461,0.0407,0.0438,
江東 (Koto),2012-06-18,08:01～09:00,0.0463,0.0416,0.0439,
江東 (Koto),2012-06-18,07:01～08:00,0.0469,0.0409,0.0441,
江東 (Koto),2012-06-18,06:01～07:00,0.0472,0.0421,0.0440,
江東 (Koto),2012-06-18,05:01～06:00,0.0472,0.0413,0.0443,
江東 (Koto),2012-06-18,04:01～05:00,0.0466,0.0421,0.0441,
江東 (Koto),2012-06-18,03:01～04:00,0.0465,0.0417,0.0441,
江東 (Koto),2012-06-18,02:01～03:00,0.0470,0.0416,0.0439,
江東 (Koto),2012-06-18,01:01～02:00,0.0464,0.0419,0.0440,
江東 (Koto),2012-06-18,00:01～01:00,0.0477,0.0415,0.0442,
